Location: Unspecified
(0.0000°N, 0.0000°E)
Time: 16:09:09
(UTC+00:00)

deb r/b Ablestar - Pass Details

Date: 14 March 2026
Orbit: 726 x 907 km, 66.9° (Epoch: 18 April)

Event Time Altitude Azimuth Distance (km) Brightness Sun altitude
Rises 20:13:42 0° 210° (SSW) 3,405 ? -31.1°
Reaches altitude 10° 20:16:12 10° 215° (SW) 2,493 ? -31.7°
Maximum altitude 20:21:47 50° 289° (WNW) 1,109 ? -33.1°
Enters shadow 20:22:16 49° 306° (NW) 1,127 ? -33.3°
